Theta_e
326 322 320 318 306 302 296 298 301 301 301 304 304 303 301 304 302 300 320 329 330 344 351 353 352 354 354 353 353 354 354 354 352 350 350 350 348 345 344 343 342 341 340 338 336 334 335 337 340
318 319 319 313 299 294 294 299 300 302 304 304 303 303 302 302 312 316 319 331 332 344 349 350 349 352 353 353 353 353 353 352 351 349 350 349 347 344 344 342 340 339 338 338 335 331 330 334 336
320 318 310 305 299 294 295 299 301 303 302 302 301 305 305 306 315 317 321 331 332 339 347 349 349 352 352 352 352 352 351 351 351 349 348 348 346 344 342 341 339 337 336 335 333 329 328 330 334
315 314 309 299 296 297 299 301 303 303 303 303 302 301 308 318 317 321 329 331 334 338 347 346 349 351 351 351 351 351 351 350 350 348 348 347 346 343 341 339 337 335 334 333 331 327 327 329 333
314 309 301 297 297 297 301 303 301 302 301 302 300 300 304 313 323 327 328 331 333 335 346 346 347 350 350 350 351 350 349 349 349 347 347 347 345 343 340 339 336 335 333 332 329 325 324 326 329
308 305 297 294 296 299 301 301 301 300 302 301 298 302 303 312 318 321 327 329 334 337 342 346 341 341 345 347 347 347 347 347 346 346 347 346 345 342 339 338 336 334 333 331 329 325 322 322 323
304 300 295 296 297 298 300 302 299 300 300 300 302 300 301 303 311 321 323 330 334 337 339 340 344 342 335 341 340 343 345 345 345 345 345 344 342 340 340 338 336 335 332 331 328 324 317 318 317
306 300 294 294 294 297 301 301 303 301 300 304 304 298 297 299 307 318 317 316 317 317 322 330 335 339 340 343 336 338 340 341 340 341 339 336 336 335 335 333 335 334 332 331 328 324 316 313 312
307 296 293 294 295 297 302 299 301 302 300 301 303 300 301 304 307 312 311 311 311 312 312 315 319 333 336 339 338 336 338 337 335 335 332 330 334 332 331 329 334 334 332 330 328 324 319 312 314
301 296 296 298 298 298 302 300 301 298 300 299 300 303 304 305 304 305 304 304 305 305 307 309 311 314 327 337 338 340 341 340 339 339 335 337 336 333 330 327 329 331 330 330 326 324 323 320 309
301 296 298 298 302 303 301 299 301 297 297 298 299 300 302 302 302 303 302 303 303 304 309 311 311 311 314 331 335 339 340 337 336 336 335 335 333 330 329 327 326 324 323 325 325 321 319 315 311
297 301 300 303 302 301 299 301 298 299 297 301 300 301 301 300 300 300 300 302 303 306 309 312 313 313 311 327 336 335 334 334 331 332 333 334 332 332 330 327 326 323 323 320 321 320 318 315 313
299 301 302 303 302 301 302 299 299 298 299 300 300 301 299 299 299 300 300 303 304 306 309 310 312 314 314 323 335 330 328 328 328 328 327 328 328 329 330 327 326 323 321 318 317 317 314 314 315
301 301 301 302 302 302 299 299 299 298 300 299 299 298 297 298 296 298 299 300 303 307 306 309 315 317 316 326 326 324 322 320 321 322 324 325 327 326 324 323 321 319 319 318 314 313 312 311 311
301 296 300 300 301 299 299 296 296 298 299 298 297 296 297 297 296 296 298 300 304 304 307 312 316 317 316 316 317 317 316 316 315 317 318 319 319 317 317 316 315 315 315 314 312 310 310 310 309
296 296 292 299 300 298 297 292 299 298 297 296 296 295 296 296 296 297 298 300 301 301 305 310 311 309 309 311 312 311 310 311 313 314 314 315 315 315 313 311 310 311 311 310 309 308 309 308 305
295 290 293 295 299 297 295 293 296 298 297 296 296 296 296 295 295 296 297 300 300 301 305 307 306 305 305 305 305 306 307 308 308 308 308 309 309 309 307 305 305 306 306 306 306 303 301 301 300
291 290 294 293 296 296 293 293 295 296 296 295 296 295 295 295 295 295 297 300 300 303 304 306 304 303 302 302 303 303 302 301 301 301 302 303 305 306 304 303 303 303 301 300 300 302 301 298 297
295 293 292 296 296 294 293 294 297 296 295 294 295 295 294 294 294 295 297 299 300 302 303 304 304 304 304 303 302 300 297 296 294 295 296 296 298 299 299 298 299 297 296 295 296 298 298 296 297
295 292 292 296 296 293 293 293 296 296 295 296 296 294 294 292 292 294 296 299 299 300 302 303 305 305 305 303 301 298 293 292 292 292 292 293 293 293 293 292 292 291 290 290 290 290 294 293 292
294 292 292 292 295 293 290 289 293 297 297 296 297 296 295 292 291 292 295 296 298 298 299 301 302 303 300 298 296 293 292 291 289 288 289 290 290 290 290 290 290 289 289 288 287 287 287 286 288
290 297 295 293 290 285 291 283 291 295 296 294 294 293 292 292 293 293 294 294 297 296 298 299 300 299 298 296 294 292 290 287 287 287 287 288 289 288 289 289 288 288 287 286 286 287 285 285 283
292 295 292 291 288 286 287 285 289 294 294 292 292 292 291 292 292 291 292 292 292 294 294 294 294 294 294 293 291 290 288 288 287 287 286 286 286 287 287 286 286 286 286 285 285 284 284 284 283
297 293 291 289 288 281 288 288 287 293 294 292 292 292 292 291 290 290 289 289 289 290 290 290 290 290 291 291 290 288 287 287 286 285 285 284 284 285 285 285 284 284 284 284 283 283 283 283 282
294 290 282 280 279 280 288 286 291 294 293 295 292 292 292 291 290 288 287 287 288 288 288 288 288 288 290 289 289 288 287 287 286 285 284 283 283 282 282 283 282 282 282 283 283 282 281 282 281
290 290 283 276 279 281 282 281 288 290 291 292 295 293 292 291 290 287 287 287 287 288 288 287 287 286 287 287 287 287 287 286 286 285 284 283 282 282 282 282 282 282 282 282 283 281 281 281 280
289 286 293 286 277 277 284 287 291 289 288 289 292 291 291 290 289 287 287 287 286 286 285 286 286 286 286 286 286 285 286 285 285 284 283 282 282 283 282 281 281 281 281 281 281 280 279 279 279
291 294 285 286 279 278 282 284 286 286 287 288 290 290 291 290 289 288 287 286 286 285 285 285 285 285 285 285 285 285 285 284 284 283 282 281 281 281 281 280 280 280 280 279 279 278 279 278 278
287 286 288 290 285 281 277 284 291 294 291 288 290 291 291 290 289 288 287 287 286 285 285 284 284 284 284 285 285 284 284 284 283 282 281 281 280 280 280 280 280 279 279 278 278 277 277 277 276
293 291 291 285 283 285 285 286 291 291 292 291 291 291 292 291 289 288 287 286 285 285 284 284 284 284 284 285 284 284 284 283 282 281 281 280 280 280 279 279 279 278 278 277 277 276 276 275 276
Wind_Speed
13 7 4 2 2 2 5 4 2 4 7 6 4 6 11 11 7 5 2 8 4 13 13 11 11 12 12 11 10 9 8 9 10 9 12 14 15 14 15 15 14 15 15 15 14 13 13 12 12
8 8 2 4 2 2 4 6 8 9 7 4 3 1 11 9 7 8 5 6 2 11 12 10 10 12 13 11 8 7 7 7 7 9 12 14 14 14 15 15 14 14 14 15 15 14 14 13 13
9 4 2 2 2 6 6 4 9 8 3 1 4 6 7 5 8 5 4 4 4 7 11 12 12 13 13 12 9 7 7 8 7 9 11 14 15 14 14 14 14 14 14 15 15 15 15 14 13
4 2 3 1 1 5 8 8 8 7 5 3 3 10 7 7 4 5 6 4 8 6 10 12 12 11 14 12 9 6 6 8 7 9 12 13 15 15 13 13 14 15 14 15 15 16 15 14 14
3 3 3 3 6 5 7 8 1 4 5 6 1 6 7 5 8 6 6 5 8 4 10 8 9 5 11 11 10 7 5 6 7 8 10 12 14 15 13 13 14 14 15 14 15 15 15 14 14
3 1 3 4 6 7 6 4 3 2 5 4 1 8 5 7 7 5 7 6 7 7 6 8 7 6 5 5 8 8 7 8 8 9 10 11 13 14 13 13 14 15 14 14 14 14 14 14 14
2 2 5 7 4 6 5 3 4 4 5 5 5 5 6 8 6 5 7 8 8 6 4 6 4 7 6 3 4 7 7 7 8 9 10 10 11 12 13 14 14 14 14 14 13 13 13 13 13
3 1 3 3 3 2 6 4 5 5 5 4 5 3 5 3 5 6 8 9 8 8 8 7 6 6 5 3 8 10 8 8 7 8 8 11 12 11 11 11 13 14 13 13 13 13 11 12 12
2 2 4 2 3 2 6 4 1 2 3 6 6 5 4 1 3 5 6 6 6 6 6 5 6 3 4 4 4 5 9 8 7 7 10 10 6 8 8 9 11 14 13 11 11 10 8 6 8
2 2 5 7 6 4 7 2 8 3 5 5 6 7 5 6 6 6 6 6 6 6 4 4 4 4 1 3 2 2 6 5 5 6 6 4 6 6 6 7 6 10 12 10 8 7 7 8 4
1 2 5 5 7 8 3 0 2 3 5 5 6 9 6 7 7 7 6 6 5 3 5 5 4 3 3 3 2 1 3 3 3 3 3 3 5 5 4 3 3 2 8 4 4 3 4 5 4
4 2 3 4 3 2 1 2 2 4 4 6 7 7 6 7 7 6 6 5 5 5 6 7 7 4 4 2 2 2 5 6 5 6 7 5 3 4 4 3 4 4 3 5 4 3 4 5 5
4 2 2 2 2 4 2 4 6 5 9 7 6 5 6 6 4 6 3 5 5 5 7 7 7 6 3 4 4 5 5 6 7 6 6 4 4 5 5 4 4 4 4 4 3 4 4 4 5
4 6 6 6 7 5 4 6 4 4 10 8 6 7 5 5 3 2 6 5 5 7 6 6 6 8 0 5 7 6 6 7 7 6 6 7 4 4 5 6 5 4 4 4 4 4 4 3 4
4 5 8 10 8 4 5 8 11 8 9 8 8 6 5 5 3 4 4 4 7 5 5 7 5 10 9 9 8 8 7 7 7 6 10 9 8 8 8 6 6 5 4 5 4 4 3 3 3
3 5 3 6 10 4 7 8 9 11 9 9 10 9 7 6 4 5 4 4 7 5 5 6 7 8 10 9 8 7 7 7 7 8 7 11 10 10 8 7 6 6 5 4 5 4 4 5 5
7 5 7 4 9 7 8 5 4 8 9 9 9 8 8 7 6 5 5 5 5 5 5 6 7 9 10 9 9 9 10 8 7 8 7 9 10 11 9 7 6 5 5 5 3 4 4 3 4
7 6 7 7 8 6 8 14 6 9 10 11 9 9 8 7 7 6 5 6 6 5 5 7 7 9 9 7 8 8 9 9 8 7 7 8 6 7 5 5 6 5 6 6 4 5 5 4 4
9 10 7 9 4 5 10 13 11 13 9 10 10 10 9 9 7 6 5 7 6 6 6 6 8 7 6 6 7 7 8 8 8 8 9 9 8 9 7 6 7 7 8 6 7 4 6 6 8
9 11 12 8 6 4 8 13 11 11 15 18 13 10 10 9 8 7 7 7 5 6 6 5 7 6 4 4 5 6 6 8 7 7 8 8 9 9 9 8 7 7 7 9 8 7 4 4 8
10 10 8 9 4 6 6 11 14 12 12 11 9 8 9 13 10 8 8 8 7 6 6 5 5 6 9 10 9 9 8 6 7 6 6 7 8 8 9 8 7 7 5 7 7 7 8 5 5
9 9 11 10 4 6 8 10 4 8 13 14 10 8 9 10 10 9 8 8 8 6 6 6 6 8 7 8 8 8 7 9 4 6 5 6 7 8 8 8 8 8 5 8 6 7 6 5 6
5 4 3 3 6 6 7 12 5 10 18 17 15 11 10 11 12 11 9 8 8 6 6 6 7 5 6 8 9 10 11 8 7 6 8 7 7 8 8 8 8 8 6 6 7 7 7 5 4
8 5 2 1 1 8 11 13 5 12 17 7 11 14 12 13 11 10 9 9 7 7 7 7 8 6 6 8 8 10 12 11 8 6 6 5 4 5 7 8 7 7 7 6 6 6 8 6 6
6 6 2 3 3 9 4 11 17 3 2 9 18 18 16 15 13 12 12 9 9 8 8 7 7 6 7 8 8 8 9 10 10 8 6 6 4 4 6 7 6 5 6 6 5 6 6 6 4
11 10 7 8 6 4 2 10 8 3 5 5 16 18 16 17 15 14 13 11 11 10 9 9 9 8 8 8 8 8 8 5 6 7 7 5 5 5 6 6 6 7 6 6 6 4 4 6 5
6 10 10 5 2 2 7 9 7 5 3 1 13 17 18 18 16 15 13 11 10 8 8 9 9 8 8 8 8 8 8 8 8 9 7 5 6 5 6 6 6 6 6 6 6 4 4 5 3
2 4 4 3 4 7 7 11 12 7 12 8 15 19 18 17 16 14 13 12 10 9 8 9 8 8 8 8 7 7 7 8 8 7 8 7 6 6 6 6 6 5 5 5 6 4 3 4 2
5 5 5 5 5 4 4 10 4 17 15 19 17 18 20 20 18 16 14 11 11 9 9 9 8 8 8 8 8 8 7 8 7 7 7 7 7 7 7 6 5 4 4 4 4 3 3 4 3
10 9 14 6 8 9 6 19 4 6 11 15 15 17 17 18 17 15 14 13 13 12 10 10 8 9 8 8 9 8 9 8 8 7 7 7 7 6 7 5 5 4 4 3 3 3 2 2 2
Wind_Direction
295 257 293 309 339 171 122 69 40 91 89 72 58 47 86 48 30 93 137 67 337 128 127 144 142 141 133 128 130 130 133 137 135 134 115 111 98 91 85 77 71 65 60 56 54 50 45 44 44
304 309 259 277 242 168 88 127 85 67 80 92 150 169 87 68 72 97 83 57 332 122 136 148 155 150 141 133 133 135 137 140 135 120 119 107 102 95 90 82 72 61 57 53 50 47 44 42 39
264 277 307 265 278 21 111 110 101 97 100 237 112 34 43 10 32 79 74 72 137 120 149 141 158 155 144 138 143 156 164 122 121 124 120 116 109 99 92 84 74 62 56 52 49 47 46 43 40
325 210 270 281 15 36 94 85 88 118 105 318 13 91 81 31 58 64 68 69 90 139 110 133 148 167 144 145 152 170 150 120 122 120 122 122 118 107 95 85 76 72 67 57 52 49 46 45 45
229 274 290 253 73 85 54 64 19 142 110 143 348 86 83 47 58 97 95 64 110 132 113 128 120 165 144 152 156 167 157 142 126 122 124 130 120 109 101 89 81 76 70 61 57 55 52 49 46
306 208 291 242 143 100 90 80 166 179 113 101 187 94 85 48 48 48 65 49 93 81 67 124 112 73 71 155 169 178 177 158 144 134 127 123 118 113 107 102 91 84 78 69 63 58 56 53 49
317 346 285 337 104 119 133 120 218 171 157 72 347 83 116 69 353 63 71 69 55 92 116 83 154 163 156 160 198 186 181 170 156 148 139 125 118 114 112 109 100 94 87 79 68 59 59 55 51
307 307 314 268 285 166 106 170 39 6 66 125 14 73 136 71 313 94 61 72 59 33 33 32 41 38 6 191 192 178 178 178 168 156 147 134 129 122 117 115 119 110 96 87 75 65 66 62 51
292 311 268 216 298 81 116 162 101 62 133 56 40 62 82 34 238 120 118 106 98 81 57 39 10 40 0 3 86 139 149 153 143 138 146 137 142 141 152 138 136 122 109 100 89 82 80 90 69
312 344 346 4 25 359 135 323 148 176 163 115 105 105 88 59 42 82 49 76 62 44 72 48 13 354 311 290 351 275 159 153 160 164 163 177 152 131 112 106 91 113 112 104 82 62 54 44 54
139 256 13 67 32 353 94 171 45 262 247 28 124 119 93 89 65 66 64 64 46 354 44 27 0 346 308 259 231 7 83 102 134 160 161 158 108 124 123 115 113 115 126 131 105 63 93 79 69
288 168 340 50 60 321 307 28 251 224 98 84 73 94 114 95 87 64 48 46 24 19 32 21 352 306 260 234 171 62 54 61 68 53 54 55 115 143 118 102 100 80 42 69 45 44 44 94 95
225 276 74 97 128 255 11 256 245 156 130 111 109 117 110 97 90 103 57 73 26 27 31 2 328 310 237 214 103 83 86 80 75 66 52 61 66 81 98 102 91 78 79 80 98 84 61 31 19
12 339 278 198 205 223 228 253 157 155 135 148 163 141 122 107 69 93 61 39 25 51 24 349 337 272 43 83 83 80 72 72 75 56 52 44 64 80 89 89 84 71 59 50 48 33 56 45 18
314 300 265 222 203 236 164 272 230 142 148 162 189 160 154 141 157 84 72 56 63 54 26 14 12 40 58 69 73 78 77 79 71 71 57 55 59 59 63 64 54 47 51 51 58 45 49 39 15
249 231 283 350 149 146 152 264 199 142 164 183 188 180 178 158 157 112 82 71 73 69 55 49 62 66 67 71 78 79 71 72 64 67 63 63 66 68 71 72 58 44 46 40 46 23 23 18 10
202 261 231 191 183 134 185 273 154 159 184 207 184 195 178 154 149 115 92 85 87 85 76 77 77 78 79 76 80 79 77 75 74 67 63 64 63 66 73 71 67 55 63 53 54 41 55 28 354
214 209 258 242 201 187 194 258 180 190 203 216 198 184 181 189 161 120 122 102 101 96 91 94 91 90 92 94 95 90 77 68 60 54 50 49 58 69 77 79 69 56 53 37 25 38 48 31 328
279 298 283 291 131 184 228 246 234 197 210 215 211 187 181 182 132 143 142 119 115 99 110 108 116 121 131 123 109 94 93 81 67 59 54 51 54 57 58 53 61 53 57 41 32 38 61 17 357
241 256 264 283 146 181 266 262 262 192 209 206 205 191 174 139 150 164 163 137 120 123 121 127 139 157 146 81 81 92 98 83 82 71 60 54 56 56 65 60 58 58 56 42 32 33 37 39 23
246 240 252 245 255 211 274 267 246 251 213 198 210 189 169 156 163 167 159 147 136 128 133 137 121 99 94 102 103 104 108 96 84 63 71 53 59 60 65 63 63 57 51 56 39 34 35 43 14
243 223 236 252 273 247 146 280 259 259 233 194 191 189 163 155 150 160 165 151 138 125 121 107 110 120 124 132 135 136 111 111 96 97 83 69 60 64 62 66 70 67 54 51 45 39 44 53 37
217 56 353 204 256 289 270 284 238 213 249 212 198 183 173 160 156 158 159 136 126 137 128 118 109 104 104 109 113 113 116 119 116 104 93 78 63 62 63 63 61 63 58 56 58 46 39 46 57
120 91 90 88 226 256 210 219 242 224 230 209 186 182 173 158 150 153 132 129 134 132 129 128 128 133 121 113 110 115 122 124 121 111 100 87 74 63 66 68 66 67 60 56 51 54 52 43 52
159 136 231 269 202 239 162 221 242 290 123 194 183 180 174 160 158 153 153 155 152 155 148 142 135 124 113 104 107 115 119 114 115 118 117 116 103 80 77 76 70 67 75 66 66 59 53 48 42
188 184 167 225 214 279 330 240 248 329 27 335 169 169 166 166 164 163 166 161 158 157 156 143 142 133 120 116 115 109 110 119 118 118 112 111 115 112 97 85 83 79 73 67 70 64 57 58 45
182 217 229 343 109 350 219 262 278 180 208 351 155 168 173 169 167 165 166 161 156 157 150 140 140 140 131 125 121 117 117 114 116 109 109 113 111 108 102 103 93 82 78 68 77 67 60 53 54
176 172 125 147 222 232 262 251 240 232 217 201 180 179 175 169 169 170 170 163 157 153 150 142 144 145 140 127 119 118 116 115 119 114 115 113 114 112 109 97 92 91 85 77 82 69 56 59 27
147 215 219 180 187 225 301 256 258 226 195 192 194 183 179 175 173 172 171 166 158 153 149 148 147 140 138 133 132 129 127 122 118 123 125 126 122 119 113 114 112 107 100 83 83 84 82 46 12
206 190 198 185 224 230 241 264 17 347 185 177 187 183 180 178 176 174 172 164 160 161 157 155 150 148 153 147 140 138 137 137 130 125 124 128 133 128 129 133 141 134 123 121 116 97 57 27 350